STARLINK-1579, 46083

Orbit data source: Space-Track

STARLINK-1579, 46083 is a payload satellite owned by SpaceX/Seattle (US) in LEO that was launched on Fri, 07 Aug 2020 UTC via an FALCON 9 launch vehicle from the Air Force Eastern Test Range (AFETR). Payload-class satellites include a variety of spacecraft equipped with specific instruments for various scientific and technological missions. These include communications satellites like Starlink; space stations such as the ISS; scientific satellites like the Hubble; Earth observation satellites from companies like Planet Labs, Umbra, and HawkEye 360; GPS; miniature CubeSats for education and research; and military/defense satellites.

Loading next visibility...
Identifier
46083, 2020-055BJ
Orbit
LEO
Country
Flag of USUS
Related business
Manufacturer
SpaceX/Seattle
Mission
Operational Commercial Communications
Bus & Motor
STARLINK, Unknown motor
Mass
260 kg wet, ~248 kg dry
Launch date (UTC)
2020-08-07 (6 years ago)
Launch vehicle
FALCON 9
Launch site
Air Force Eastern Test Range (AFETR)
Object type
Payload
Rocket body
Debris
Shape & HBR
Box + 1 Pan, 10.1 m
Radar Cross Section
13.562 m², Large (>1 m²)

Expand to show TLE details & history
Last TLE update: 19 hours ago

TLE from 19 hours ago
0 STARLINK-1579
1 46083U 20055BJ  26265.60709409  .00001417  00000-0  57412-4 0  9995
2 46083  53.1597 264.7687 0001439  87.8874 272.2292 15.31703648339405
Epoch: 2026-09-22T14:34Z
TLE epoch observation values (Epoch: 2026-09-22T14:34:12.929Z)
Latitude
-0.00003°
Longitude
44.74466°
Altitude
471.591 km
Speed
7.631 km/s
True Right ascension
17h 39m 04s
True Declination
0° 00' 00"
Sunlit
Object was in daylight at epoch
Visualization orbit readout
Latitude
Unknown
Longitude
Unknown
Altitude
Unknown
Speed
Unknown
Apparent Right ascension
Unknown
Apparent Declination
Unknown
Sunlit
N/A
Visualization observer readout
Local Sidereal Time
03:07:34
Azimuth
Unknown
Elevation
Unknown
Doppler factor
Unknown
Orbital elements
Apogee altitude
471.971 km
Perigee altitude
470 km
Semi-major axis
6,849.123 km
Eccentricity
0.00014
Inclination
53.1597°
RAAN
264.7687°
Arg. of periapsis
87.8874°
True anomaly
272.21272°
Mean anomaly
272.2292°
Eccentric anomaly
272.22096°
Mean motion
3.82905 °/min
Orbital period
94.02 mins
BSTAR
0.000057412
Loading maneuver chart data...
Computing Atmospheric mass density...

Documentation

Showing up to 5 results
|